Weather History for Crestview, FL

Change the Weather History Date:

Friday, March 8, 2013

  Actual Average Record
Temperature  
Mean Temperature 52 °F -  
Max Temperature 72 °F - - ()
Min Temperature 31 °F - - ()
Degree Days  
Heating Degree Days 14    
Growing Degree Days 2 (Base 50)    
Moisture  
Dew Point 34 °F    
Average Humidity 59    
Maximum Humidity 94    
Minimum Humidity 17    
Precipitation  
Precipitation 0.00 in - - ()
Sea Level Pressure  
Sea Level Pressure 30.24 in    
Wind  
Wind Speed 2 mph (NNW)    
Max Wind Speed 8 mph    
Max Gust Speed -    
Visibility 10 miles    
Events      
T = Trace of Precipitation, MM = Missing Value Source: NWS Daily Summary

Daily Weather History Graph

Daily Weather History Graph

Search for Another Location

Airport:

Trip Planner

Search our weather history database for the weather conditions in past years. The results will help you decide how hot, cold, wet, or windy it might be!

Date:

Astronomy

Mar. 08, 2013 Rise Set
Actual Time 6:04 AM CST 5:49 PM CST
Civil Twilight 5:40 AM CST 6:13 PM CST
Nautical Twilight 5:12 AM CST 6:41 PM CST
Astronomical Twilight 4:44 AM CST 7:09 PM CST
Moon 3:36 AM CST (3/8) 2:54 PM CST (3/8)
Length of Visible Light 12h 33m
Length of Day
11h 45m
Waning Crescent, 11% of the Moon is Illuminated
Mar 8
Waning Crescent
Mar 11
New
Mar 19
First Quarter
Mar 27
Full
Apr 2
Last Quarter

Hourly Weather History & Observations

Time (CST) Temp. Windchill Dew Point Humidity Pressure Visibility Wind Dir Wind Speed Gust Speed Precip Events Conditions
12:58 AM 36.9 °F - 35.2 °F 94% 30.25 in 10.0 mi Calm Calm - N/A   Clear
1:58 AM 35.8 °F - 34.3 °F 94% 30.25 in 10.0 mi Calm Calm - N/A   Clear
2:58 AM 34.0 °F - 32.2 °F 93% 30.24 in 10.0 mi Calm Calm - N/A   Clear
3:58 AM 32.4 °F 29.1 °F 30.6 °F 93% 30.24 in 10.0 mi North 3.5 mph - N/A   Clear
4:58 AM 31.5 °F - 29.8 °F 94% 30.25 in 9.0 mi Calm Calm - N/A   Clear
5:58 AM 32.0 °F - 30.2 °F 93% 30.26 in 10.0 mi NW 2.3 mph - N/A   Clear
6:58 AM 35.6 °F - 32.0 °F 87% 30.29 in 10.0 mi North 2.3 mph - N/A   Clear
7:58 AM 46.4 °F 44.3 °F 33.8 °F 62% 30.30 in 10.0 mi NE 4.6 mph - N/A   Clear
8:55 AM 53.6 °F - 33.8 °F 47% 30.31 in 10.0 mi NE 4.6 mph - N/A   Partly Cloudy
9:56 AM 60.1 °F - 32.9 °F 36% 30.30 in 10.0 mi Variable 5.8 mph - N/A   Partly Cloudy
10:55 AM 63.1 °F - 33.1 °F 33% 30.29 in 10.0 mi Variable 5.8 mph - N/A   Scattered Clouds
11:55 AM 66.2 °F - 31.6 °F 28% 30.26 in 10.0 mi Variable 3.5 mph - N/A   Mostly Cloudy
12:55 PM 69.4 °F - 31.1 °F 24% 30.22 in 10.0 mi Variable 2.3 mph - N/A   Scattered Clouds
1:55 PM 71.6 °F - 30.7 °F 22% 30.21 in 10.0 mi West 5.8 mph - N/A   Mostly Cloudy
2:55 PM 72.7 °F - 28.6 °F 20% 30.20 in 10.0 mi NNW 8.1 mph - N/A   Mostly Cloudy
3:55 PM 72.7 °F - 25.9 °F 17% 30.19 in 7.0 mi NNW 5.8 mph - N/A   Scattered Clouds
4:55 PM 69.3 °F - 30.6 °F 24% 30.19 in 10.0 mi NW 5.8 mph - N/A   Mostly Cloudy
5:55 PM 63.0 °F - 33.4 °F 33% 30.21 in 10.0 mi South 3.5 mph - N/A   Mostly Cloudy
6:55 PM 57.7 °F - 42.1 °F 56% 30.22 in 10.0 mi South 6.9 mph - N/A   Mostly Cloudy
7:55 PM 56.5 °F - 43.2 °F 61% 30.22 in 10.0 mi West 1.2 mph - N/A   Mostly Cloudy
8:55 PM 55.4 °F - 43.3 °F 64% 30.23 in 10.0 mi Calm Calm - N/A   Mostly Cloudy
9:55 PM 48.4 °F - 41.0 °F 76% 30.22 in 10.0 mi Calm Calm - N/A   Mostly Cloudy
10:56 PM 45.3 °F - 40.8 °F 84% 30.21 in 10.0 mi NE 2.3 mph - N/A   Scattered Clouds
11:55 PM 43.7 °F - 40.6 °F 89% 30.19 in 10.0 mi Calm Calm - N/A   Scattered Clouds